Weather History for Taylorville, IL

Change the Weather History Date:

Monday, December 31, 2012

  Actual Average (KSPI) Record (KSPI)
Temperature  
Mean Temperature 28 °F 27 °F  
Max Temperature 32 °F 35 °F 65 °F (2004)
Min Temperature 23 °F 19 °F -9 °F (1967)
Degree Days  
Heating Degree Days 38 38  
Month to date heating degree days 1074  
Since 1 July heating degree days 2140  
Cooling Degree Days 0 0  
Month to date cooling degree days 0  
Year to date cooling degree days 1122  
Moisture  
Dew Point 27 °F    
Average Humidity 90    
Maximum Humidity 100    
Minimum Humidity 74    
Precipitation  
Precipitation 0.08 in 0.07 in 1.18 in (1984)
Month to date precipitation 2.52  
Year to date precipitation 37.43  
Snow  
Snow 0.00 in 0.20 in 1.60 in (2012)
Month to date snowfall 5.6  
Since 1 July snowfall 6.2  
Snow Depth -    
Sea Level Pressure  
Sea Level Pressure 30.12 in    
Wind  
Wind Speed 11 mph (SW)    
Max Wind Speed 18 mph    
Max Gust Speed 23 mph    
Visibility 6 miles    
Events Snow    
T = Trace of Precipitation, MM = Missing Value Source: NWS Daily Summary

Daily Weather History Graph

Daily Weather History Graph

Search for Another Location

Airport:

Trip Planner

Search our weather history database for the weather conditions in past years. The results will help you decide how hot, cold, wet, or windy it might be!

Date:

Astronomy

Dec. 31, 2012 Rise Set
Actual Time 7:17 AM CST 4:43 PM CST
Civil Twilight 6:47 AM CST 5:13 PM CST
Nautical Twilight 6:13 AM CST 5:47 PM CST
Astronomical Twilight 5:41 AM CST 6:20 PM CST
Moon 8:13 PM CST (12/31) 9:00 AM CST (12/31)
Length of Visible Light 10h 26m
Length of Day
9h 25m
Waning Gibbous, 90% of the Moon is Illuminated
Dec 31
Waning Gibbous
Jan 4
Last Quarter
Jan 11
New
Jan 18
First Quarter
Jan 26
Full

Hourly Weather History & Observations

Time (CST) Temp. Windchill Dew Point Humidity Pressure Visibility Wind Dir Wind Speed Gust Speed Precip Events Conditions
12:15 AM 26.6 °F 16.2 °F 23.0 °F 86% 30.16 in 10.0 mi South 11.5 mph - N/A   Clear
12:35 AM 28.4 °F 18.5 °F 23.0 °F 80% 30.17 in 10.0 mi South 11.5 mph - N/A   Clear
12:55 AM 28.4 °F 19.1 °F 23.0 °F 80% 30.17 in 10.0 mi South 10.4 mph - N/A   Clear
1:15 AM 28.4 °F 18.5 °F 21.2 °F 74% 30.18 in 10.0 mi SSW 11.5 mph - N/A   Clear
1:35 AM 28.4 °F 16.2 °F 23.0 °F 80% 30.17 in 10.0 mi SSW 17.3 mph - N/A   Clear
1:55 AM 28.4 °F 17.5 °F 21.2 °F 74% 30.18 in 10.0 mi SSW 13.8 mph - N/A   Clear
2:15 AM 28.4 °F 16.6 °F 23.0 °F 80% 30.17 in 10.0 mi South 16.1 mph - N/A   Clear
2:35 AM 28.4 °F 15.8 °F 21.2 °F 74% 30.16 in 10.0 mi SSW 18.4 mph 23.0 mph N/A   Clear
2:55 AM 30.2 °F 19.3 °F 23.0 °F 75% 30.16 in 10.0 mi SSW 15.0 mph 21.9 mph N/A   Clear
3:15 AM 30.2 °F 18.9 °F 23.0 °F 75% 30.15 in 10.0 mi SSW 16.1 mph - N/A   Clear
3:35 AM 30.2 °F 19.3 °F 23.0 °F 75% 30.15 in 10.0 mi SSW 15.0 mph - N/A   Clear
3:55 AM 30.2 °F 19.3 °F 23.0 °F 75% 30.16 in 10.0 mi SSW 15.0 mph - N/A   Clear
4:15 AM 30.2 °F 19.8 °F 23.0 °F 75% 30.14 in 10.0 mi SSW 13.8 mph - N/A   Clear
4:35 AM 30.2 °F 20.2 °F 23.0 °F 75% 30.15 in 10.0 mi SSW 12.7 mph - N/A   Clear
4:55 AM 30.2 °F 20.2 °F 23.0 °F 75% 30.14 in 10.0 mi SSW 12.7 mph - N/A   Clear
5:15 AM 30.2 °F 19.8 °F 23.0 °F 75% 30.14 in 10.0 mi SSW 13.8 mph 18.4 mph N/A   Clear
5:35 AM 30.2 °F 19.8 °F 23.0 °F 75% 30.14 in 10.0 mi SSW 13.8 mph - N/A   Clear
5:55 AM 30.2 °F 20.8 °F 23.0 °F 75% 30.14 in 10.0 mi SSW 11.5 mph - N/A   Mostly Cloudy
6:15 AM 30.2 °F 19.8 °F 23.0 °F 75% 30.14 in 10.0 mi SSW 13.8 mph - N/A   Scattered Clouds
6:35 AM 30.2 °F 19.8 °F 23.0 °F 75% 30.14 in 10.0 mi SSW 13.8 mph 17.3 mph N/A   Scattered Clouds
6:55 AM 30.2 °F 20.2 °F 24.8 °F 80% 30.14 in 10.0 mi SSW 12.7 mph - N/A   Clear
7:15 AM 30.2 °F 20.8 °F 24.8 °F 80% 30.13 in 10.0 mi SSW 11.5 mph - N/A   Mostly Cloudy
7:35 AM 30.2 °F 20.8 °F 24.8 °F 80% 30.13 in 10.0 mi SSW 11.5 mph - N/A   Mostly Cloudy
7:55 AM 32.0 °F 23.6 °F 24.8 °F 75% 30.13 in 10.0 mi SSW 10.4 mph - N/A   Scattered Clouds
8:15 AM 32.0 °F 23.6 °F 24.8 °F 75% 30.12 in 10.0 mi SSW 10.4 mph - N/A   Clear
8:35 AM 32.0 °F 23.6 °F 24.8 °F 75% 30.14 in 10.0 mi SSW 10.4 mph - N/A   Clear
8:55 AM 32.0 °F 24.8 °F 24.8 °F 75% 30.13 in 10.0 mi SSW 8.1 mph - N/A   Clear
9:15 AM 32.0 °F 23.6 °F 24.8 °F 75% 30.14 in 10.0 mi SSW 10.4 mph - N/A   Clear
9:35 AM 32.0 °F 24.2 °F 26.6 °F 80% 30.15 in 3.0 mi WSW 9.2 mph 17.3 mph N/A Snow Light Snow
9:55 AM 30.2 °F 21.9 °F 28.4 °F 93% 30.14 in 0.8 mi West 9.2 mph - N/A Snow Light Snow
10:15 AM 30.2 °F 22.6 °F 30.2 °F 100% 30.15 in 0.5 mi WSW 8.1 mph - N/A Snow Light Snow
10:35 AM 30.2 °F 22.6 °F 30.2 °F 100% 30.15 in 1.0 mi WSW 8.1 mph - N/A Snow Light Snow
10:55 AM 30.2 °F 22.6 °F 30.2 °F 100% 30.15 in 2.0 mi SW 8.1 mph - N/A Snow Light Snow
11:15 AM 30.2 °F 23.4 °F 30.2 °F 100% 30.14 in 1.0 mi SW 6.9 mph - N/A Snow Light Snow
11:35 AM 30.2 °F 21.9 °F 30.2 °F 100% 30.14 in 0.8 mi SW 9.2 mph - N/A Snow Light Snow
11:55 AM 30.2 °F 22.6 °F 30.2 °F 100% 30.11 in 1.0 mi SSW 8.1 mph - N/A Snow Light Snow
12:15 PM 32.0 °F 25.6 °F 30.2 °F 93% 30.11 in 1.5 mi SW 6.9 mph - N/A Snow Light Snow
12:35 PM 32.0 °F 24.8 °F 30.2 °F 93% 30.10 in 1.0 mi SW 8.1 mph - N/A Snow Light Snow
12:55 PM 30.2 °F 23.4 °F 30.2 °F 100% 30.10 in 0.8 mi SW 6.9 mph - N/A Snow Light Snow
1:15 PM 30.2 °F 23.4 °F 30.2 °F 100% 30.08 in 0.5 mi SW 6.9 mph - N/A Snow Snow
1:35 PM 32.0 °F 26.4 °F 30.2 °F 93% 30.08 in 0.8 mi SW 5.8 mph - 0.01 in Snow Light Snow
1:55 PM 32.0 °F 25.6 °F 30.2 °F 93% 30.08 in 0.8 mi SW 6.9 mph - N/A Snow Light Snow
2:15 PM 30.2 °F 24.3 °F 30.2 °F 100% 30.09 in 1.2 mi SW 5.8 mph - 0.01 in Snow Light Snow
2:35 PM 32.0 °F 25.6 °F 30.2 °F 93% 30.09 in 1.8 mi SW 6.9 mph - 0.03 in Snow Light Snow
2:55 PM 30.2 °F 23.4 °F 30.2 °F 100% 30.09 in 7.0 mi WSW 6.9 mph - 0.01 in Snow Light Snow
3:15 PM 30.2 °F 22.6 °F 30.2 °F 100% 30.08 in 2.5 mi WSW 8.1 mph - 0.02 in Snow Light Snow
3:35 PM 30.2 °F 24.3 °F 30.2 °F 100% 30.08 in 1.5 mi SW 5.8 mph - 0.03 in Snow Light Snow
3:55 PM 30.2 °F 25.4 °F 30.2 °F 100% 30.08 in 2.0 mi WSW 4.6 mph - 0.01 in Snow Light Snow
4:15 PM 30.2 °F 24.3 °F 30.2 °F 100% 30.08 in 2.5 mi SW 5.8 mph - 0.01 in Snow Light Snow
4:35 PM 30.2 °F 25.4 °F 30.2 °F 100% 30.08 in 3.0 mi WSW 4.6 mph - 0.01 in Snow Light Snow
4:55 PM 30.2 °F 26.7 °F 30.2 °F 100% 30.08 in 4.0 mi WSW 3.5 mph - N/A Snow Light Snow
5:15 PM 30.2 °F 25.4 °F 30.2 °F 100% 30.08 in 4.0 mi WSW 4.6 mph - N/A Snow Light Snow
5:35 PM 30.2 °F - 30.2 °F 100% 30.08 in 5.0 mi Calm Calm - N/A   Overcast
5:55 PM 30.2 °F - 30.2 °F 100% 30.07 in 5.0 mi Calm Calm - N/A   Overcast
6:15 PM 30.2 °F - 30.2 °F 100% 30.08 in 5.0 mi Calm Calm - N/A   Overcast
6:35 PM 30.2 °F 26.7 °F 30.2 °F 100% 30.08 in 5.0 mi SW 3.5 mph - N/A   Overcast
6:55 PM 30.2 °F 26.7 °F 30.2 °F 100% 30.08 in 5.0 mi West 3.5 mph - N/A   Overcast
7:15 PM 30.2 °F - 30.2 °F 100% 30.07 in 5.0 mi Calm Calm - N/A   Overcast
7:35 PM 30.2 °F - 30.2 °F 100% 30.07 in 4.0 mi Calm Calm - N/A   Overcast
7:55 PM 28.4 °F 21.2 °F 28.4 °F 100% 30.08 in 4.0 mi North 6.9 mph - N/A   Overcast
8:15 PM 28.4 °F 21.2 °F 28.4 °F 100% 30.08 in 5.0 mi North 6.9 mph - N/A   Overcast
8:35 PM 28.4 °F 21.2 °F 28.4 °F 100% 30.08 in 5.0 mi North 6.9 mph - N/A   Overcast
8:55 PM 28.4 °F 20.4 °F 28.4 °F 100% 30.09 in 5.0 mi North 8.1 mph - N/A   Overcast
9:15 PM 26.6 °F 20.0 °F 26.6 °F 100% 30.09 in 4.0 mi NNW 5.8 mph - N/A   Overcast
9:35 PM 26.6 °F 16.2 °F 26.6 °F 100% 30.09 in 10.0 mi NNW 11.5 mph - N/A   Overcast
9:55 PM 26.6 °F 15.2 °F 26.6 °F 100% 30.09 in 7.0 mi North 13.8 mph - N/A   Overcast
10:15 PM 24.8 °F 14.0 °F 24.8 °F 100% 30.10 in 7.0 mi North 11.5 mph - N/A   Overcast
10:35 PM 24.8 °F 12.9 °F 24.8 °F 100% 30.10 in 7.0 mi North 13.8 mph - N/A   Mostly Cloudy
10:55 PM 24.8 °F 12.9 °F 23.0 °F 93% 30.11 in 7.0 mi North 13.8 mph - N/A   Mostly Cloudy
11:15 PM 24.8 °F 13.4 °F 21.2 °F 86% 30.10 in 10.0 mi NNW 12.7 mph - N/A   Overcast
11:35 PM 23.0 °F 11.7 °F 21.2 °F 93% 30.11 in 10.0 mi NNW 11.5 mph - N/A   Overcast
11:55 PM 23.0 °F 10.6 °F 21.2 °F 93% 30.12 in 10.0 mi NNW 13.8 mph - N/A   Overcast